CXA9527 RKSI-ZSPD

Flight info

Callsign CXA9527
Flight time N/A
Altitude 35100
Route BOPTA Z51 BEDES Y711 PONIK A593 DUMET
Aircraft A320/M-SDE2E3FGHIJ1RWXY/M

Departure

Time 2026-05-05 13:59
Airport Incheon International Airport (RKSI)

Arrival

Time N/A
Airport Shanghai Pudong International Airport (ZSPD)
Time Latitude Longitude Altitude Speed Heading
2026-05-05 13:43 37.45387 126.44011 18 ft 0 kts 111°
2026-05-05 13:49 37.45391 126.44000 18 ft 2 kts 110°
2026-05-05 13:50 37.45396 126.43983 19 ft 2 kts 111°
2026-05-05 13:50 37.45401 126.43965 19 ft 2 kts 110°
2026-05-05 13:50 37.45407 126.43948 19 ft 2 kts 111°
2026-05-05 13:50 37.45413 126.43930 20 ft 2 kts 132°
2026-05-05 13:51 37.45425 126.43919 20 ft 2 kts 154°
2026-05-05 13:51 37.45439 126.43913 20 ft 2 kts 178°
2026-05-05 13:51 37.45454 126.43916 20 ft 2 kts 201°
2026-05-05 13:51 37.45467 126.43926 19 ft 2 kts 225°
2026-05-05 13:52 37.45472 126.43933 18 ft 1 kts 238°
2026-05-05 13:52 37.45475 126.43938 18 ft 0 kts 235°
2026-05-05 13:53 37.45477 126.43942 18 ft 1 kts 235°
2026-05-05 13:54 37.45460 126.43914 19 ft 9 kts 232°
2026-05-05 13:54 37.45431 126.43846 21 ft 8 kts 264°
2026-05-05 13:54 37.45456 126.43770 21 ft 10 kts 298°
2026-05-05 13:54 37.45431 126.43681 18 ft 14 kts 230°
2026-05-05 13:55 37.45361 126.43563 12 ft 18 kts 257°
2026-05-05 13:55 37.45446 126.43452 12 ft 19 kts 329°
2026-05-05 13:55 37.45554 126.43353 11 ft 19 kts 321°
2026-05-05 13:55 37.45665 126.43245 11 ft 20 kts 328°
2026-05-05 13:56 37.45784 126.43148 10 ft 20 kts 324°
2026-05-05 13:56 37.45905 126.43041 9 ft 21 kts 324°
2026-05-05 13:56 37.46027 126.42933 9 ft 21 kts 324°
2026-05-05 13:56 37.46150 126.42823 9 ft 21 kts 324°
2026-05-05 13:57 37.46274 126.42712 9 ft 21 kts 324°
2026-05-05 13:57 37.46396 126.42604 9 ft 21 kts 324°
2026-05-05 13:57 37.46520 126.42493 9 ft 21 kts 324°
2026-05-05 13:57 37.46644 126.42384 9 ft 21 kts 324°
2026-05-05 13:58 37.46768 126.42272 9 ft 21 kts 324°
2026-05-05 13:58 37.46891 126.42160 9 ft 21 kts 315°
2026-05-05 13:58 37.46854 126.41999 9 ft 19 kts 224°
2026-05-05 13:58 37.46778 126.42003 9 ft 12 kts 146°
2026-05-05 13:59 37.45833 126.42847 59 ft 169 kts 144°
2026-05-05 13:59 37.44828 126.43684 1037 ft 179 kts 148°
2026-05-05 14:00 37.42702 126.45264 3046 ft 197 kts 148°
2026-05-05 14:00 37.41489 126.46195 3928 ft 217 kts 148°
2026-05-05 14:00 37.40120 126.47266 4571 ft 250 kts 148°
2026-05-05 14:00 37.38512 126.48335 4885 ft 266 kts 156°
2026-05-05 14:01 37.36734 126.49103 5250 ft 270 kts 164°
2026-05-05 14:01 37.34944 126.49707 6115 ft 274 kts 165°
2026-05-05 14:01 37.33093 126.50314 6607 ft 275 kts 165°
2026-05-05 14:01 37.31221 126.50905 6814 ft 276 kts 169°
2026-05-05 14:02 37.29316 126.50739 6815 ft 286 kts 200°
2026-05-05 14:02 37.27449 126.49551 6830 ft 315 kts 210°
2026-05-05 14:02 37.25494 126.48056 6830 ft 347 kts 211°
2026-05-05 14:02 37.23322 126.46416 6826 ft 376 kts 210°